Time,TemperatureF,DewpointF,PressureIn,WindDirection,WindDirectionDegrees,WindSpeedMPH,WindSpeedGustMPH,Humidity,HourlyPrecipIn,Conditions,Clouds,dailyrainin,SoftwareType,DateUTC
2013-04-25 00:05:00,75.6,64.0,30.11,East,86,7.0,13.0,68,0.00,,,0.00,weatherlink.com 1.10,2013-04-25 04:05:00,
2013-04-25 00:20:00,75.6,64.0,30.11,SE,126,8.0,14.0,68,0.00,,,0.00,weatherlink.com 1.10,2013-04-25 04:20:00,
2013-04-25 00:35:00,75.7,64.0,30.11,ENE,74,7.0,14.0,68,0.00,,,0.00,weatherlink.com 1.10,2013-04-25 04:35:00,
2013-04-25 00:50:00,75.3,64.0,30.10,East,90,10.0,11.0,69,0.00,,,0.00,weatherlink.com 1.10,2013-04-25 04:50:00,
2013-04-25 01:05:00,75.4,64.0,30.10,East,99,7.0,10.0,68,0.00,,,0.00,weatherlink.com 1.10,2013-04-25 05:05:00,
2013-04-25 01:20:00,75.2,65.0,30.09,East,92,6.0,10.0,70,0.00,,,0.00,weatherlink.com 1.10,2013-04-25 05:20:00,
2013-04-25 01:35:00,75.0,64.0,30.09,East,89,3.0,10.0,68,0.00,,,0.00,weatherlink.com 1.10,2013-04-25 05:35:00,
2013-04-25 01:50:00,75.1,64.0,30.09,ESE,105,5.0,13.0,68,0.00,,,0.00,weatherlink.com 1.10,2013-04-25 05:50:00,
2013-04-25 02:05:00,75.2,64.0,30.09,ESE,110,5.0,11.0,69,0.00,,,0.00,weatherlink.com 1.10,2013-04-25 06:05:00,
2013-04-25 02:20:00,75.0,64.0,30.09,ESE,122,7.0,12.0,69,0.00,,,0.00,weatherlink.com 1.10,2013-04-25 06:20:00,
2013-04-25 02:35:00,74.9,64.0,30.09,East,98,5.0,11.0,68,0.00,,,0.00,weatherlink.com 1.10,2013-04-25 06:35:00,
2013-04-25 02:50:00,75.0,64.0,30.08,East,88,9.0,13.0,68,0.00,,,0.00,weatherlink.com 1.10,2013-04-25 06:50:00,
2013-04-25 03:05:00,75.0,64.0,30.08,ESE,110,4.0,11.0,69,0.00,,,0.00,weatherlink.com 1.10,2013-04-25 07:05:00,
2013-04-25 03:20:00,74.9,64.0,30.08,East,96,2.0,13.0,69,0.00,,,0.00,weatherlink.com 1.10,2013-04-25 07:20:00,
2013-04-25 03:35:00,74.7,63.0,30.08,East,80,4.0,12.0,68,0.00,,,0.00,weatherlink.com 1.10,2013-04-25 07:35:00,
2013-04-25 03:50:00,74.7,64.0,30.08,East,86,3.0,11.0,69,0.00,,,0.00,weatherlink.com 1.10,2013-04-25 07:50:00,
2013-04-25 04:05:00,74.6,63.0,30.08,ESE,112,2.0,10.0,67,0.00,,,0.00,weatherlink.com 1.10,2013-04-25 08:05:00,
2013-04-25 04:20:00,74.4,63.0,30.08,ESE,115,4.0,8.0,67,0.00,,,0.00,weatherlink.com 1.10,2013-04-25 08:20:00,
2013-04-25 04:35:00,74.2,63.0,30.08,ESE,116,6.0,8.0,68,0.00,,,0.00,weatherlink.com 1.10,2013-04-25 08:35:00,
2013-04-25 04:50:00,74.2,63.0,30.07,ESE,106,4.0,8.0,68,0.00,,,0.00,weatherlink.com 1.10,2013-04-25 08:50:00,
2013-04-25 05:05:00,74.1,63.0,30.07,East,97,4.0,7.0,68,0.00,,,0.00,weatherlink.com 1.10,2013-04-25 09:05:00,
2013-04-25 05:20:00,74.0,63.0,30.08,East,99,4.0,8.0,68,0.00,,,0.00,weatherlink.com 1.10,2013-04-25 09:20:00,
2013-04-25 05:35:00,74.1,63.0,30.08,ESE,115,3.0,7.0,69,0.00,,,0.00,weatherlink.com 1.10,2013-04-25 09:35:00,
2013-04-25 05:50:00,73.8,63.0,30.08,ESE,120,2.0,6.0,70,0.00,,,0.00,weatherlink.com 1.10,2013-04-25 09:50:00,
2013-04-25 06:05:00,73.7,63.0,30.09,East,101,3.0,6.0,70,0.00,,,0.00,weatherlink.com 1.10,2013-04-25 10:05:00,
2013-04-25 06:20:00,73.5,63.0,30.09,East,83,1.0,7.0,70,0.00,,,0.00,weatherlink.com 1.10,2013-04-25 10:20:00,
2013-04-25 06:35:00,73.5,63.0,30.10,East,92,3.0,6.0,69,0.00,,,0.00,weatherlink.com 1.10,2013-04-25 10:35:00,
2013-04-25 06:50:00,73.1,63.0,30.10,ESE,102,1.0,5.0,71,0.00,,,0.00,weatherlink.com 1.10,2013-04-25 10:50:00,
2013-04-25 07:05:00,72.9,63.0,30.11,East,89,2.0,4.0,71,0.00,,,0.00,weatherlink.com 1.10,2013-04-25 11:05:00,
2013-04-25 07:20:00,73.7,63.0,30.12,East,101,1.0,5.0,70,0.00,,,0.00,weatherlink.com 1.10,2013-04-25 11:20:00,
2013-04-25 07:35:00,74.7,64.0,30.12,East,94,1.0,4.0,70,0.00,,,0.00,weatherlink.com 1.10,2013-04-25 11:35:00,
2013-04-25 07:50:00,75.9,65.0,30.13,ESE,106,2.0,8.0,69,0.00,,,0.00,weatherlink.com 1.10,2013-04-25 11:50:00,
2013-04-25 08:05:00,77.1,66.0,30.13,East,92,3.0,9.0,68,0.00,,,0.00,weatherlink.com 1.10,2013-04-25 12:05:00,
2013-04-25 08:21:00,78.2,66.0,30.13,East,86,3.0,6.0,66,0.00,,,0.00,weatherlink.com 1.10,2013-04-25 12:21:00,
2013-04-25 08:36:00,78.6,66.0,30.13,ENE,77,3.0,12.0,65,0.00,,,0.00,weatherlink.com 1.10,2013-04-25 12:36:00,
2013-04-25 08:51:00,79.3,66.0,30.14,ESE,117,6.0,9.0,63,0.00,,,0.00,weatherlink.com 1.10,2013-04-25 12:51:00,
2013-04-25 09:06:00,79.6,66.0,30.14,ESE,113,5.0,13.0,63,0.00,,,0.00,weatherlink.com 1.10,2013-04-25 13:06:00,
2013-04-25 09:21:00,80.1,66.0,30.14,East,97,5.0,11.0,63,0.00,,,0.00,weatherlink.com 1.10,2013-04-25 13:21:00,
2013-04-25 09:36:00,80.1,66.0,30.15,ESE,112,5.0,12.0,63,0.00,,,0.00,weatherlink.com 1.10,2013-04-25 13:36:00,
2013-04-25 09:51:00,80.6,66.0,30.15,ENE,74,4.0,11.0,61,0.00,,,0.00,weatherlink.com 1.10,2013-04-25 13:51:00,
2013-04-25 10:06:00,81.0,65.0,30.16,East,87,6.0,10.0,59,0.00,,,0.00,weatherlink.com 1.10,2013-04-25 14:06:00,
2013-04-25 10:21:00,81.2,64.0,30.16,East,96,5.0,12.0,57,0.00,,,0.00,weatherlink.com 1.10,2013-04-25 14:21:00,
2013-04-25 10:36:00,81.5,65.0,30.16,East,97,4.0,11.0,57,0.00,,,0.00,weatherlink.com 1.10,2013-04-25 14:36:00,
2013-04-25 10:51:00,82.4,65.0,30.16,East,89,3.0,11.0,56,0.00,,,0.00,weatherlink.com 1.10,2013-04-25 14:51:00,
2013-04-25 11:06:00,81.9,64.0,30.17,East,97,4.0,12.0,55,0.00,,,0.00,weatherlink.com 1.10,2013-04-25 15:06:00,
2013-04-25 11:21:00,81.6,65.0,30.17,NE,51,7.0,9.0,57,0.00,,,0.00,weatherlink.com 1.10,2013-04-25 15:21:00,
2013-04-25 11:36:00,81.4,66.0,30.17,ENE,73,6.0,9.0,59,0.00,,,0.00,weatherlink.com 1.10,2013-04-25 15:36:00,
2013-04-25 11:51:00,81.9,64.0,30.16,ESE,122,3.0,10.0,55,0.00,,,0.00,weatherlink.com 1.10,2013-04-25 15:51:00,
2013-04-25 12:06:00,82.2,65.0,30.16,NNW,330,5.0,11.0,57,0.00,,,0.00,weatherlink.com 1.10,2013-04-25 16:06:00,
2013-04-25 12:21:00,82.1,66.0,30.16,NNE,20,4.0,11.0,59,0.00,,,0.00,weatherlink.com 1.10,2013-04-25 16:21:00,
2013-04-25 12:36:00,82.4,66.0,30.16,NNE,30,8.0,9.0,58,0.00,,,0.00,weatherlink.com 1.10,2013-04-25 16:36:00,
2013-04-25 12:51:00,82.3,66.0,30.16,East,91,5.0,11.0,59,0.00,,,0.00,weatherlink.com 1.10,2013-04-25 16:51:00,
2013-04-25 13:06:00,81.2,66.0,30.15,East,99,2.0,11.0,60,0.00,,,0.00,weatherlink.com 1.10,2013-04-25 17:06:00,
2013-04-25 13:21:00,82.8,65.0,30.16,ESE,107,4.0,10.0,55,0.00,,,0.00,weatherlink.com 1.10,2013-04-25 17:21:00,
2013-04-25 13:36:00,84.0,64.0,30.16,ENE,57,9.0,12.0,51,0.00,,,0.00,weatherlink.com 1.10,2013-04-25 17:36:00,
2013-04-25 13:51:00,84.0,63.0,30.16,ESE,110,7.0,11.0,49,0.00,,,0.00,weatherlink.com 1.10,2013-04-25 17:51:00,
2013-04-25 14:06:00,83.7,62.0,30.16,ESE,123,3.0,12.0,48,0.00,,,0.00,weatherlink.com 1.10,2013-04-25 18:06:00,
2013-04-25 14:21:00,84.2,62.0,30.16,East,85,10.0,10.0,47,0.00,,,0.00,weatherlink.com 1.10,2013-04-25 18:21:00,
2013-04-25 14:36:00,83.6,65.0,30.15,ENE,66,7.0,10.0,53,0.00,,,0.00,weatherlink.com 1.10,2013-04-25 18:36:00,
2013-04-25 14:51:00,84.5,65.0,30.15,SW,221,1.0,9.0,52,0.00,,,0.00,weatherlink.com 1.10,2013-04-25 18:51:00,
2013-04-25 15:21:00,85.8,64.0,30.13,ESE,122,4.0,8.0,49,0.00,,,0.00,weatherlink.com 1.10,2013-04-25 19:21:00,
2013-04-25 15:36:00,85.1,64.0,30.13,ESE,110,1.0,11.0,49,0.00,,,0.00,weatherlink.com 1.10,2013-04-25 19:36:00,
2013-04-25 15:51:00,85.3,63.0,30.13,East,79,7.0,9.0,47,0.00,,,0.00,weatherlink.com 1.10,2013-04-25 19:51:00,
2013-04-25 16:06:00,85.0,63.0,30.12,ESE,109,3.0,13.0,48,0.00,,,0.00,weatherlink.com 1.10,2013-04-25 20:06:00,
2013-04-25 16:21:00,85.4,63.0,30.12,ESE,110,7.0,10.0,47,0.00,,,0.00,weatherlink.com 1.10,2013-04-25 20:21:00,
2013-04-25 16:36:00,84.6,63.0,30.11,ENE,78,7.0,11.0,48,0.00,,,0.00,weatherlink.com 1.10,2013-04-25 20:36:00,
2013-04-25 16:51:00,83.9,63.0,30.11,East,84,5.0,11.0,50,0.00,,,0.00,weatherlink.com 1.10,2013-04-25 20:51:00,
2013-04-25 17:06:00,83.7,63.0,30.11,ESE,114,5.0,9.0,50,0.00,,,0.00,weatherlink.com 1.10,2013-04-25 21:06:00,
2013-04-25 17:21:00,84.1,63.0,30.11,East,96,10.0,10.0,49,0.00,,,0.00,weatherlink.com 1.10,2013-04-25 21:21:00,
2013-04-25 17:36:00,82.6,63.0,30.11,East,93,2.0,10.0,52,0.00,,,0.00,weatherlink.com 1.10,2013-04-25 21:36:00,
2013-04-25 17:51:00,82.2,62.0,30.12,ESE,106,4.0,10.0,51,0.00,,,0.00,weatherlink.com 1.10,2013-04-25 21:51:00,
2013-04-25 18:06:00,81.8,62.0,30.12,ENE,76,3.0,12.0,51,0.00,,,0.00,weatherlink.com 1.10,2013-04-25 22:06:00,
2013-04-25 18:21:00,82.2,62.0,30.12,East,82,4.0,11.0,50,0.00,,,0.00,weatherlink.com 1.10,2013-04-25 22:21:00,
2013-04-25 18:36:00,81.3,62.0,30.12,SE,134,1.0,11.0,53,0.00,,,0.00,weatherlink.com 1.10,2013-04-25 22:36:00,
2013-04-25 18:51:00,80.6,62.0,30.13,ESE,115,8.0,12.0,53,0.00,,,0.00,weatherlink.com 1.10,2013-04-25 22:51:00,
2013-04-25 19:06:00,79.8,62.0,30.12,East,96,5.0,12.0,54,0.00,,,0.00,weatherlink.com 1.10,2013-04-25 23:06:00,
2013-04-25 19:21:00,79.0,62.0,30.12,ENE,78,8.0,11.0,56,0.00,,,0.00,weatherlink.com 1.10,2013-04-25 23:21:00,
2013-04-25 19:36:00,77.9,63.0,30.13,East,96,4.0,10.0,60,0.00,,,0.00,weatherlink.com 1.10,2013-04-25 23:36:00,
2013-04-25 19:51:00,77.0,62.0,30.13,East,97,4.0,8.0,61,0.00,,,0.00,weatherlink.com 1.10,2013-04-25 23:51:00,
2013-04-25 20:06:00,76.6,63.0,30.14,East,97,3.0,9.0,62,0.00,,,0.00,weatherlink.com 1.10,2013-04-26 00:06:00,
2013-04-25 20:21:00,76.3,62.0,30.14,East,91,2.0,12.0,62,0.00,,,0.00,weatherlink.com 1.10,2013-04-26 00:21:00,
2013-04-25 20:37:00,76.2,63.0,30.15,East,79,8.0,10.0,63,0.00,,,0.00,weatherlink.com 1.10,2013-04-26 00:37:00,
2013-04-25 20:52:00,76.1,62.0,30.15,SE,127,1.0,10.0,62,0.00,,,0.00,weatherlink.com 1.10,2013-04-26 00:52:00,
2013-04-25 21:07:00,75.9,62.0,30.15,ESE,110,9.0,9.0,63,0.00,,,0.00,weatherlink.com 1.10,2013-04-26 01:07:00,
2013-04-25 21:22:00,76.0,63.0,30.15,ENE,60,7.0,12.0,64,0.00,,,0.00,weatherlink.com 1.10,2013-04-26 01:22:00,
2013-04-25 21:37:00,76.0,62.0,30.16,ENE,75,6.0,12.0,63,0.00,,,0.00,weatherlink.com 1.10,2013-04-26 01:37:00,
2013-04-25 21:52:00,75.8,62.0,30.17,ENE,60,4.0,9.0,62,0.00,,,0.00,weatherlink.com 1.10,2013-04-26 01:52:00,
2013-04-25 22:07:00,75.7,63.0,30.18,East,89,4.0,14.0,64,0.00,,,0.00,weatherlink.com 1.10,2013-04-26 02:07:00,
2013-04-25 22:22:00,75.8,62.0,30.18,NE,46,4.0,12.0,62,0.00,,,0.00,weatherlink.com 1.10,2013-04-26 02:22:00,
2013-04-25 22:37:00,75.5,63.0,30.18,East,101,3.0,12.0,66,0.00,,,0.00,weatherlink.com 1.10,2013-04-26 02:37:00,
2013-04-25 22:52:00,75.1,63.0,30.18,East,98,8.0,11.0,66,0.00,,,0.00,weatherlink.com 1.10,2013-04-26 02:52:00,
2013-04-25 23:07:00,75.1,63.0,30.18,NE,48,7.0,13.0,66,0.00,,,0.00,weatherlink.com 1.10,2013-04-26 03:07:00,
2013-04-25 23:22:00,74.9,63.0,30.18,ESE,103,4.0,11.0,66,0.00,,,0.00,weatherlink.com 1.10,2013-04-26 03:22:00,
2013-04-25 23:37:00,74.9,62.0,30.19,ENE,65,3.0,11.0,64,0.00,,,0.00,weatherlink.com 1.10,2013-04-26 03:37:00,
2013-04-25 23:52:00,74.7,62.0,30.18,ENE,65,5.0,10.0,64,0.00,,,0.00,weatherlink.com 1.10,2013-04-26 03:52:00,